Content
SEND FEEDBACK

Daily
Averages
Monthly
Summary
France

OISSEL, FRANCE


Home > Europe > France
Elevation: 515 feet     Latitude: 49 22N     Longitude: 001 10E

WEATHER
 
SELECT A DAY
Number of Records: 172,572;   Date Range: 7/1/96 - 7/20/14
 
SHARE

PRINT THIS DATA

[ ← Previous Day ]
WEATHER ALMANAC - MARCH 16, 2013
[ Next Day → ]
[ °C ]   °F
Weather ElementAverageHighLow
Temperature40.4 °F46.4 °F (4:00 pm)37.4 °F (5:30 am)
Dewpoint33.2 °F37.4 °F (6:30 pm)28.4 °F (2:00 pm)
Humidity75.8 %93 % (11:30 pm)53 % (2:30 pm)
Barometer29.60 in29.82 in (1:00 am)29.47 in (4:30 pm)
Wind Speed15 mph20.7 mph (3:30 pm)
Wind Gust33.4 mph (5:00 pm)
Weather ElementAverage
Visibility7.4 mi
Wind DirectionSSE (174.1 °)

Weather ElementTotal
Precipitation---
Heating Degree Days23.1 (Base 65)
Averaged from 51 records on March 16, 2013
WEATHER CONDITIONS BREAKOUT
WIND DIRECTION BREAKOUT
WEATHER BY HOUR - MARCH 16, 2013
[ °C ]   °F
Local TimeTemperatureDewpointHumidityBarometerVisibilityWind DirectionWind SpeedGust SpeedPrecipitationEventsConditions
12:30 AM39.2 °F32.0 °F75 %29.80 in6.2 miSouth (170°)11.5 mph
1:00 AM39.0 °F32.0 °F69 %29.82 in18.0 miSouth (180°)11.5 mphClear
1:00 AM39.2 °F32.0 °F75 %29.80 in6.2 miSouth (180°)11.5 mph
1:30 AM39.2 °F32.0 °F75 %29.77 in6.2 miSouth (170°)11.5 mph
2:00 AM39.2 °F33.8 °F81 %29.77 in6.2 miSouth (170°)11.5 mph
2:30 AM39.2 °F33.8 °F81 %29.77 in6.2 miSouth (170°)12.7 mph
3:00 AM39.2 °F33.8 °F81 %29.74 in6.2 miSSE (160°)11.5 mph
3:30 AM39.2 °F33.8 °F81 %29.74 in6.2 miSSE (160°)13.8 mph
4:00 AM39.2 °F33.8 °F81 %29.74 in6.2 miSSE (160°)12.7 mph
4:30 AM39.2 °F33.8 °F81 %29.71 in6.2 miSSE (160°)12.7 mphMostly Cloudy
5:00 AM39.2 °F33.8 °F81 %29.71 in6.2 miSouth (170°)12.7 mph
5:30 AM37.4 °F33.8 °F87 %29.71 in6.2 miSouth (170°)13.8 mph
6:00 AM39.2 °F33.8 °F81 %29.68 in6.2 miSouth (170°)13.8 mph
6:30 AM37.4 °F33.8 °F87 %29.68 in6.2 miSSE (160°)15.0 mphMostly Cloudy
7:00 AM38.0 °F34.0 °F79 %29.72 in19.0 miSouth (170°)13.8 mphMostly Cloudy
7:00 AM37.4 °F33.8 °F87 %29.68 in6.2 miSouth (170°)13.8 mph
7:30 AM37.4 °F33.8 °F87 %29.68 in6.2 miSSE (160°)13.8 mphOvercast
8:00 AM37.4 °F33.8 °F87 %29.68 in6.2 miSouth (170°)15.0 mph
8:30 AM37.4 °F32.0 °F81 %29.65 in6.2 miSouth (170°)15.0 mph
9:00 AM37.4 °F32.0 °F81 %29.65 in6.2 miSouth (170°)16.1 mph
9:30 AM37.4 °F32.0 °F81 %29.65 in6.2 miSouth (170°)17.3 mph28.8 mph
10:00 AM39.2 °F30.2 °F70 %29.65 in6.2 miSouth (170°)18.4 mph
10:30 AM39.2 °F30.2 °F70 %29.62 in6.2 miSouth (170°)17.3 mph
11:00 AM39.2 °F30.2 °F70 %29.62 in6.2 miSouth (170°)18.4 mph
11:30 AM41.0 °F30.2 °F65 %29.59 in6.2 miSouth (170°)18.4 mph
12:00 PM41.0 °F30.2 °F65 %29.59 in6.2 miSouth (170°)18.4 mph
12:30 PM41.0 °F30.2 °F65 %29.59 in6.2 miSouth (170°)19.6 mphOvercast
1:00 PM41.0 °F30.0 °F54 %29.60 in19.0 miSouth (170°)16.1 mphOvercast
1:00 PM41.0 °F30.2 °F65 %29.56 in6.2 miSSE (160°)16.1 mphOvercast
1:30 PM42.8 °F30.2 °F61 %29.56 in6.2 miSouth (170°)17.3 mphOvercast
2:00 PM42.8 °F28.4 °F57 %29.53 in6.2 miSouth (170°)18.4 mph
2:30 PM44.6 °F28.4 °F53 %29.53 in6.2 miSouth (170°)16.1 mph
3:00 PM44.6 °F30.2 °F57 %29.50 in6.2 miSSE (160°)19.6 mph
3:30 PM44.6 °F30.2 °F57 %29.50 in6.2 miSSE (160°)20.7 mph
4:00 PM46.4 °F30.2 °F53 %29.50 in6.2 miSouth (170°)20.7 mphOvercast
4:30 PM46.4 °F30.2 °F53 %29.47 in6.2 miSouth (170°)19.6 mphOvercast
5:00 PM44.6 °F32.0 °F61 %29.47 in6.2 miSouth (180°)20.7 mph33.4 mphRainLight Rain
5:30 PM42.8 °F33.8 °F70 %29.47 in6.2 miSouth (190°)16.1 mphRainLight Rain
6:00 PM42.8 °F35.6 °F76 %29.47 in6.2 miSW (220°)11.5 mphRainLight Rain
6:30 PM41.0 °F37.4 °F87 %29.47 in3.7 miSW (220°)15.0 mphRainLight Rain
7:00 PM40.0 °F37.0 °F83 %29.51 in31.0 miSSW (200°)19.6 mphClear
7:00 PM41.0 °F37.4 °F87 %29.47 in6.2 miSSW (200°)19.6 mphOvercast
7:30 PM39.2 °F35.6 °F87 %29.47 in6.2 miSouth (190°)15.0 mph
8:00 PM39.2 °F35.6 °F87 %29.50 in6.2 miSouth (190°)11.5 mphScattered Clouds
8:30 PM41.0 °F37.4 °F87 %29.47 in6.2 miSouth (180°)11.5 mphOvercast
9:00 PM41.0 °F37.4 °F87 %29.47 in6.2 miSouth (180°)13.8 mphOvercast
9:30 PM41.0 °F37.4 °F87 %29.47 in6.2 miSouth (180°)12.7 mphOvercast
10:00 PM41.0 °F37.4 °F87 %29.47 in6.2 miSouth (180°)11.5 mphOvercast
10:30 PM41.0 °F37.4 °F87 %29.47 in6.2 miSouth (170°)9.2 mphMostly Cloudy
11:00 PM41.0 °F37.4 °F87 %29.47 in6.2 miSouth (170°)9.2 mphOvercast
11:30 PM39.2 °F37.4 °F93 %29.47 in6.2 miSouth (180°)10.4 mphMostly Cloudy
Hourly data recorded from LFOP, located miles away from Oissel, France







STORIES FROM OUR PARTNERS